Wind_Speed
30 37 30 36 36 36 37 49 48 47 46 45 47 46 41 39 38 38 38 36 34 34 32 31 29 27 26 24 21 21 20 20 18 15 20 12 14 15 12 13 12 13 12
32 28 32 33 36 39 41 48 51 49 48 47 44 42 41 40 38 39 40 38 38 37 35 34 32 30 29 27 25 23 22 23 22 20 20 16 16 17 17 15 14 14 14
34 34 35 30 34 37 44 49 48 51 49 48 44 45 47 45 44 43 42 38 37 40 38 36 36 33 32 30 27 25 25 24 24 24 22 18 18 19 18 18 16 17 14
42 39 34 34 33 35 43 50 48 49 51 49 48 49 48 46 42 39 38 36 40 42 41 40 39 38 35 34 30 28 27 26 27 26 27 24 14 21 18 17 18 19 16
43 43 42 35 35 34 40 48 50 46 49 53 51 49 47 45 42 41 39 40 43 44 45 43 42 42 38 37 34 32 30 29 29 29 27 28 28 28 28 22 20 21 20
31 39 43 40 36 35 39 44 49 47 49 53 53 50 47 44 45 42 40 41 43 43 43 43 42 42 41 39 37 34 33 32 31 31 31 31 31 30 28 28 25 23 25
35 29 33 39 39 39 39 40 46 47 48 54 54 52 48 45 44 42 42 42 41 42 40 41 41 41 41 40 39 38 36 35 35 34 33 33 33 33 33 31 35 28 28
18 27 33 29 38 39 41 42 42 48 49 50 55 52 49 48 45 44 44 43 42 40 39 37 39 39 40 41 42 40 38 37 37 36 35 36 35 36 36 36 39 35 28
24 19 24 29 32 38 41 42 44 47 47 48 53 54 52 50 46 45 44 44 44 40 37 36 36 37 38 40 42 42 40 39 38 37 37 37 38 38 39 40 44 41 37
23 23 21 28 30 34 41 43 46 46 49 46 49 53 55 51 46 42 41 40 39 38 37 36 34 34 34 36 38 39 40 40 40 39 39 39 38 40 41 42 46 43 42
30 27 24 26 31 33 36 45 45 48 53 49 48 51 57 54 50 46 44 41 38 38 37 34 32 32 33 34 36 36 36 37 37 37 37 37 38 38 42 42 45 45 44
16 20 23 15 30 28 32 35 42 49 54 54 50 51 56 57 55 51 48 46 44 43 40 39 39 38 37 36 37 37 37 36 36 34 35 35 38 38 39 42 43 46 44
6 10 8 18 32 36 34 35 38 43 48 53 54 51 49 55 59 56 53 50 47 47 46 44 45 42 41 41 39 38 37 37 36 35 35 33 34 35 35 39 41 43 43
16 4 4 4 20 35 42 39 40 39 41 41 51 56 52 54 58 58 56 53 48 47 47 47 46 45 46 46 45 44 43 42 41 40 39 38 38 37 36 37 37 38 40
19 2 9 6 10 30 36 49 48 47 57 57 53 55 57 51 62 62 55 55 52 51 48 48 47 47 49 49 50 50 49 49 49 48 47 46 44 43 43 42 42 42 42
16 9 5 9 22 29 29 40 41 51 52 51 55 58 55 58 56 67 63 60 54 53 52 52 51 50 50 49 51 51 52 52 52 52 51 51 50 48 49 49 48 47 48
22 15 11 3 12 23 26 30 36 35 41 53 53 56 60 65 63 61 66 66 61 60 58 56 55 54 53 52 50 50 53 54 54 53 54 55 54 52 53 53 52 53 53
19 20 23 12 6 11 12 22 29 33 33 38 51 54 59 63 67 67 65 65 64 63 62 60 56 54 53 53 51 49 50 50 51 50 53 54 53 51 54 54 54 56 55
23 24 19 24 20 8 8 12 19 24 29 34 36 48 52 59 64 68 68 67 65 64 62 61 58 58 55 55 53 55 54 53 53 53 55 56 54 51 51 54 56 58 55
19 23 27 27 26 26 17 2 13 20 25 27 31 35 43 51 56 61 65 69 69 65 65 62 63 60 60 55 54 57 56 57 57 56 56 54 51 51 50 53 56 56 51
22 23 24 27 28 32 33 28 8 14 14 25 30 34 36 41 47 53 60 64 65 66 65 64 62 60 55 53 54 61 61 59 58 56 53 55 52 50 51 52 53 54 42
19 19 20 21 26 26 26 29 31 14 3 12 17 24 33 41 45 47 49 53 57 60 59 59 60 58 55 53 56 55 56 57 58 55 53 50 47 48 48 48 52 50 45
20 20 21 22 23 26 25 25 22 26 23 14 8 13 21 30 42 46 48 51 53 53 54 54 57 56 55 56 57 57 57 59 59 57 53 49 45 43 47 49 52 48 45
22 22 21 22 22 24 25 25 24 21 20 22 21 15 12 16 29 37 44 48 49 50 53 54 58 60 58 58 58 59 60 60 63 60 56 55 50 49 51 52 52 48 47
23 24 24 22 23 23 24 24 24 24 22 19 19 17 16 15 17 28 30 35 43 47 48 53 56 59 61 60 59 60 63 64 65 66 60 59 55 54 56 57 52 49 47
25 25 25 25 24 24 25 24 24 24 25 24 22 17 17 16 18 19 19 34 39 42 45 47 51 55 57 57 59 60 64 65 68 65 63 62 59 56 57 53 49 47 46
Wind_Direction
246 246 237 236 231 228 229 233 229 228 230 229 229 230 230 234 233 234 229 226 225 225 225 227 232 230 233 232 232 233 229 232 236 207 248 232 243 243 253 268 268 261 258
236 231 232 231 227 223 229 235 229 230 230 231 230 231 234 235 236 235 233 224 222 225 226 228 230 233 235 236 234 236 236 234 236 237 244 238 243 254 256 259 264 270 269
238 233 233 236 229 222 228 233 233 230 230 230 230 229 234 234 235 234 231 227 223 226 225 227 232 232 236 238 239 238 241 241 243 242 250 245 253 261 255 257 261 265 274
242 236 231 231 238 223 228 233 234 232 227 228 228 228 229 230 229 227 227 226 225 226 227 226 229 233 231 239 238 239 240 243 246 247 248 253 256 265 276 264 263 265 269
243 243 239 230 227 235 229 234 234 234 227 226 226 227 229 231 231 229 225 222 225 227 228 227 227 234 233 235 241 241 241 243 247 253 249 250 246 261 268 273 266 267 266
247 246 240 234 229 227 235 239 233 233 226 223 224 226 227 229 230 225 224 223 226 230 231 231 231 233 236 234 240 243 243 245 246 251 256 254 256 263 262 265 270 265 265
242 243 242 235 225 221 231 238 230 225 228 222 223 225 226 227 230 227 224 225 227 233 234 235 235 235 237 237 237 243 244 243 249 250 256 261 260 262 266 266 269 270 270
233 247 243 236 233 221 219 238 238 222 227 224 221 222 226 227 230 230 226 226 227 230 239 238 238 239 238 239 240 241 245 247 246 250 250 256 260 262 263 266 270 274 273
235 224 234 241 228 228 221 219 240 233 223 225 222 223 225 226 227 229 227 228 228 226 231 235 235 237 239 240 241 242 243 247 249 249 253 252 257 259 261 263 266 273 276
253 242 210 225 234 223 221 221 224 237 221 225 224 223 225 226 226 224 224 225 222 224 224 230 232 235 235 238 240 242 243 245 246 247 249 252 253 257 259 261 265 271 274
276 259 223 224 214 224 221 220 225 229 228 220 224 223 224 224 223 222 222 221 221 220 224 227 230 232 237 238 240 240 242 243 244 246 247 252 254 255 258 261 265 269 271
275 257 227 246 227 214 224 219 225 226 230 225 224 221 224 224 224 224 224 224 226 228 229 232 234 235 235 238 241 241 241 241 242 246 249 253 255 256 258 260 264 267 271
276 229 231 243 219 212 206 212 225 233 228 227 227 222 219 221 224 226 228 228 230 235 235 234 235 235 236 236 237 239 241 240 239 241 246 251 257 260 262 263 265 270 274
305 195 172 247 243 218 214 210 207 207 221 222 231 224 221 217 226 228 232 235 234 234 234 234 235 236 236 237 237 238 239 240 240 242 246 249 254 259 262 264 268 270 272
320 212 176 169 220 235 225 219 215 215 218 215 218 226 222 219 220 233 233 235 234 235 234 235 236 238 238 237 237 240 242 244 246 247 249 251 253 258 262 264 268 270 272
327 307 132 188 232 226 228 227 228 224 223 219 219 224 224 220 218 221 234 234 233 233 234 239 241 240 242 240 239 240 243 246 247 249 251 253 254 255 258 263 265 269 272
2 348 13 143 225 244 236 225 230 230 228 222 219 221 226 225 221 222 226 230 232 233 235 238 241 244 244 248 249 245 244 245 249 252 252 253 253 253 256 258 262 265 269
6 356 5 0 49 169 207 234 229 232 236 230 225 225 225 227 227 227 227 230 232 234 235 238 241 243 246 246 249 246 246 246 248 252 256 259 259 257 255 256 260 263 265
12 8 3 2 355 25 158 188 215 230 232 235 235 234 229 228 229 230 230 230 232 235 239 241 243 243 246 247 249 244 244 247 251 255 260 265 263 261 257 253 256 258 259
3 4 358 2 352 349 11 126 199 216 221 227 232 234 238 237 232 231 232 234 234 237 240 242 244 246 246 250 247 244 245 248 252 256 258 264 265 259 256 252 253 258 257
357 350 349 347 346 351 351 359 318 205 189 209 227 235 234 235 238 237 236 235 236 240 242 244 246 248 248 246 244 245 246 249 253 255 259 263 265 260 251 249 255 259 254
341 337 335 334 332 336 344 346 344 316 253 193 198 208 231 237 237 236 235 236 236 236 238 239 241 242 241 240 242 242 244 248 251 255 258 263 260 254 251 255 252 251 250
335 334 333 331 330 329 334 336 343 336 341 349 340 207 214 226 239 234 236 237 239 240 240 241 242 241 242 242 242 246 247 250 254 255 256 259 256 254 252 251 252 248 249
326 325 326 326 326 326 330 329 332 331 333 336 341 337 258 231 227 243 240 234 234 237 240 241 245 246 246 247 248 249 250 252 253 255 256 255 255 257 256 245 244 246 250
319 319 320 324 325 326 326 327 326 327 326 325 323 328 331 283 237 222 224 234 239 236 236 240 243 247 250 249 249 249 250 251 254 254 252 252 250 255 256 251 248 249 251
316 317 317 320 323 323 323 325 325 324 324 322 316 311 313 320 297 255 232 225 234 237 239 238 239 246 248 246 247 248 249 248 248 246 243 246 248 249 249 246 247 250 254
Height
3088 3090 3095 3099 3104 3108 3108 3105 3109 3115 3119 3124 3129 3134 3140 3145 3150 3153 3156 3162 3167 3170 3174 3177 3181 3184 3186 3189 3192 3194 3196 3198 3200 3203 3201 3202 3203 3203 3203 3203 3203 3202 3202
3079 3083 3087 3089 3093 3098 3100 3098 3101 3107 3112 3118 3125 3131 3136 3139 3144 3147 3150 3154 3160 3163 3169 3172 3175 3179 3182 3185 3188 3191 3194 3195 3197 3199 3198 3200 3201 3200 3199 3200 3200 3199 3199
3067 3072 3077 3082 3083 3087 3091 3090 3093 3098 3105 3112 3118 3123 3127 3131 3133 3137 3142 3148 3154 3157 3162 3167 3170 3174 3177 3180 3183 3187 3189 3192 3193 3195 3195 3196 3196 3195 3196 3196 3196 3195 3196
3055 3058 3064 3072 3076 3078 3081 3082 3086 3090 3097 3104 3107 3112 3117 3121 3128 3133 3138 3143 3147 3150 3155 3160 3164 3167 3171 3174 3178 3182 3185 3187 3189 3191 3191 3193 3194 3192 3192 3193 3193 3192 3193
3043 3046 3052 3058 3067 3071 3071 3072 3078 3083 3088 3094 3099 3106 3111 3118 3123 3125 3131 3135 3139 3143 3146 3151 3157 3160 3164 3168 3172 3175 3179 3182 3184 3185 3188 3189 3190 3189 3188 3188 3190 3189 3189
3035 3036 3040 3048 3056 3062 3062 3063 3069 3074 3079 3083 3091 3098 3104 3111 3113 3118 3123 3128 3132 3136 3140 3145 3149 3153 3157 3162 3165 3169 3172 3176 3179 3180 3182 3184 3185 3185 3186 3184 3182 3185 3185
3025 3027 3032 3037 3043 3050 3054 3054 3059 3065 3070 3075 3083 3090 3097 3103 3107 3112 3116 3121 3126 3129 3133 3138 3143 3146 3151 3155 3158 3161 3165 3169 3171 3175 3176 3178 3179 3180 3180 3180 3176 3179 3181
3008 3018 3022 3027 3034 3039 3045 3047 3050 3055 3061 3066 3074 3082 3089 3094 3100 3104 3108 3113 3118 3124 3127 3132 3136 3140 3144 3148 3151 3154 3157 3161 3164 3166 3170 3171 3172 3173 3175 3174 3171 3172 3175
3000 3000 3008 3016 3021 3029 3034 3040 3040 3046 3052 3058 3065 3073 3081 3086 3091 3096 3101 3105 3110 3116 3121 3125 3129 3133 3136 3140 3143 3146 3150 3153 3156 3159 3161 3164 3165 3167 3168 3168 3165 3166 3167
2995 2994 2991 3000 3011 3017 3024 3030 3034 3036 3043 3050 3056 3064 3073 3078 3084 3089 3092 3097 3103 3108 3113 3117 3122 3125 3129 3132 3136 3139 3142 3145 3147 3150 3153 3155 3158 3160 3161 3161 3159 3160 3162
2988 2990 2989 2991 2995 3006 3013 3019 3023 3029 3032 3040 3046 3054 3062 3069 3075 3081 3086 3091 3097 3101 3105 3111 3115 3118 3121 3125 3128 3131 3134 3137 3140 3142 3144 3147 3149 3151 3153 3154 3153 3153 3154
2981 2981 2982 2984 2987 2993 3003 3009 3014 3018 3022 3030 3037 3043 3052 3059 3066 3072 3077 3084 3088 3093 3098 3102 3106 3110 3114 3117 3120 3124 3127 3129 3132 3135 3136 3139 3141 3142 3144 3145 3145 3145 3146
2974 2973 2972 2975 2976 2981 2987 2996 3007 3009 3014 3020 3026 3033 3040 3046 3055 3063 3069 3074 3080 3084 3089 3093 3096 3101 3106 3109 3113 3117 3119 3122 3124 3126 3128 3131 3132 3134 3136 3137 3137 3138 3138
2968 2967 2966 2966 2969 2971 2977 2982 2987 2992 3000 3010 3014 3022 3030 3037 3047 3053 3059 3065 3070 3075 3079 3083 3087 3091 3096 3099 3104 3107 3110 3113 3116 3118 3121 3123 3124 3126 3127 3128 3129 3130 3128
2965 2961 2960 2959 2958 2962 2966 2970 2975 2981 2986 2993 3002 3010 3019 3028 3035 3043 3048 3054 3059 3064 3069 3073 3077 3080 3083 3087 3093 3097 3101 3104 3106 3108 3111 3113 3115 3117 3118 3119 3120 3120 3119
2961 2957 2955 2954 2954 2953 2955 2963 2968 2972 2978 2986 2992 2997 3005 3015 3021 3029 3037 3042 3046 3052 3057 3061 3065 3069 3073 3077 3082 3086 3090 3094 3095 3098 3100 3103 3105 3107 3107 3109 3109 3109 3107
2963 2957 2953 2951 2952 2953 2954 2954 2957 2961 2966 2973 2980 2985 2992 3000 3009 3016 3023 3028 3034 3040 3045 3051 3055 3058 3062 3068 3073 3076 3078 3081 3083 3087 3089 3091 3093 3095 3095 3097 3098 3098 3098
2963 2958 2954 2952 2950 2948 2949 2951 2951 2952 2956 2960 2967 2974 2981 2988 2996 3003 3009 3016 3021 3026 3032 3038 3043 3047 3051 3056 3062 3065 3067 3068 3070 3074 3076 3078 3081 3084 3084 3087 3087 3087 3085
2964 2960 2956 2951 2949 2946 2943 2945 2947 2947 2948 2952 2956 2962 2969 2975 2982 2990 2997 3004 3010 3015 3020 3025 3029 3034 3039 3044 3049 3052 3054 3056 3058 3063 3065 3066 3068 3072 3072 3074 3072 3072 3073
2966 2962 2957 2951 2948 2945 2941 2939 2941 2942 2944 2946 2948 2952 2957 2964 2970 2976 2983 2990 2996 3002 3007 3011 3016 3021 3026 3031 3037 3040 3042 3043 3045 3050 3052 3054 3056 3058 3059 3058 3058 3061 3064
2966 2963 2960 2956 2952 2946 2940 2936 2937 2936 2936 2939 2941 2944 2948 2953 2959 2965 2970 2976 2982 2988 2994 2999 3003 3008 3013 3017 3022 3026 3029 3031 3032 3037 3040 3042 3043 3045 3045 3046 3050 3054 3056
2967 2964 2960 2957 2953 2949 2945 2941 2936 2931 2930 2930 2933 2936 2940 2943 2948 2953 2959 2964 2969 2974 2980 2985 2990 2995 2999 3004 3008 3013 3016 3018 3019 3024 3029 3030 3030 3032 3034 3037 3039 3041 3043
2965 2961 2957 2955 2951 2947 2944 2940 2938 2935 2927 2926 2926 2927 2931 2935 2938 2942 2946 2952 2957 2962 2966 2971 2975 2982 2986 2990 2995 2998 3002 3004 3005 3010 3015 3017 3017 3020 3022 3024 3026 3028 3030
2963 2960 2957 2954 2950 2946 2942 2939 2935 2934 2931 2927 2924 2923 2923 2926 2929 2931 2933 2938 2943 2948 2952 2957 2960 2965 2971 2974 2979 2983 2987 2990 2991 2996 2999 3002 3004 3007 3009 3011 3012 3015 3018
2959 2958 2954 2951 2948 2944 2940 2937 2933 2929 2927 2925 2924 2922 2921 2921 2922 2923 2924 2926 2930 2934 2938 2942 2946 2949 2954 2958 2961 2965 2969 2973 2975 2980 2982 2985 2987 2992 2994 2995 2999 3004 3007
2958 2955 2951 2947 2944 2940 2938 2934 2931 2925 2922 2920 2918 2920 2918 2916 2915 2916 2915 2916 2919 2922 2924 2927 2931 2933 2936 2941 2943 2946 2949 2953 2957 2961 2963 2967 2971 2976 2980 2984 2988 2992 2996